Flag for Germany

Past Weather in Husum, Schleswig-Holstein, Germany — Yesterday and Last 2 Weeks

Now
68 °F

Broken clouds.


Feels Like: 68 °F
Forecast: 65 / 52 °F
Wind: 12 mph from West

Location: Schleswig-Jagel

Current Time: Jul 2, 2020 at 3:22:55 pm

Latest Report: Jul 2, 2020 at 2:20 pm


Visibility: N/A

Pressure: 29.77 "Hg

Humidity: 56%

Dew Point: 52 °F

Location of HusumLocation

Past Weather in Husum — Graph

°F

Husum Temperature Yesterday

Maximum temperature yesterday: 70 °F (at 2:20 pm)
Minimum temperature yesterday: 55 °F (at 2:20 am)
Average temperature yesterday: 63 °F

High & Low Weather Summary for the Past Weeks

 TemperatureHumidityPressure
High86 °F (Jun 27, 3:20 pm)100% (Jun 21, 5:20 am)30.30 "Hg (Jun 21, 5:20 am)
Low48 °F (Jun 23, 5:20 am)30% (Jun 24, 3:20 pm)29.59 "Hg (Jun 30, 7:20 am)
Average65 °F72%29.94 "Hg
* Reported Jun 17 1:20 pm — Jul 2 1:20 pm, Husum. Weather by CustomWeather, © 2020

Note: Actual official high and low records may vary slightly from our data, if they occured in-between our weather recording intervals... More about our weather records

Husum Weather History for the Previous 24 Hours

Scroll right to see more
 ConditionsComfort  
Time TempWeatherWind HumidityBarometerVisibility
1:20 pm
Thu, Jul 2
68 °FBroken clouds.13 mph56%29.77 "HgN/A
12:20 pm66 °FBroken clouds.15 mph60%29.77 "HgN/A
11:20 am64 °FBroken clouds.13 mph64%29.74 "HgN/A
10:20 am63 °FBroken clouds.10 mph73%29.74 "HgN/A
9:20 am63 °FPartly sunny.10 mph73%29.74 "HgN/A
8:43 am63 °FPartly sunny.13 mph68%29.71 "HgN/A
8:20 am63 °FPartly sunny.13 mph68%29.71 "HgN/A
7:20 am59 °FScattered clouds.8 mph82%29.71 "HgN/A
6:20 am55 °FScattered clouds.6 mph94%29.71 "HgN/A
5:20 am55 °FBroken clouds.5 mph88%29.68 "HgN/A
4:20 am57 °FCool.9 mph88%29.68 "Hg2 mi
3:20 am59 °FCool.9 mph88%29.65 "Hg2 mi
2:20 am59 °FCool.9 mph88%29.65 "Hg2 mi
1:20 am59 °FCool.9 mph88%29.65 "Hg2 mi
12:20 am61 °FCool.9 mph83%29.65 "Hg2 mi
11:20 pm
Wed, Jul 1
61 °FCool.9 mph83%29.65 "Hg2 mi
10:20 pm61 °FCool.9 mph83%29.62 "Hg2 mi
9:20 pm63 °FMild.15 mph83%29.62 "Hg2 mi
8:20 pm64 °FMild.16 mph78%29.59 "Hg2 mi
7:20 pm68 °FMild.17 mph69%29.59 "Hg3 mi
6:20 pm70 °FMild.20 mph64%29.59 "Hg3 mi
5:27 pm70 °FThunderstorms. Partly sunny.9 mph64%29.59 "HgN/A
4:20 pm70 °FBroken clouds.9 mph60%29.59 "HgN/A
3:20 pm70 °FBroken clouds.12 mph57%29.62 "HgN/A
Weather by CustomWeather, © 2020

See weather overview